Regional Weather Roundup
Issued by NWS

Home | Current Version | Previous Version | Graphics & Text | Print | Product List | Glossary On
Versions: 1 2 3 4 5 6 7 8 9 10 11 12 13 14 15 16 17 18 19 20 21 22 23 24 25 26 27 28 29 30 31 32 33 34 35 36 37 38 39 40 41 42 43 44 45 46 47 48 49 50
000
ASUS43 KLOT 051312
RWRIL

ILLINOIS REGIONAL WEATHER ROUNDUP
NATIONAL WEATHER SERVICE CHICAGO/ROMEOVILLE IL
800 AM CDT TUE MAY 05 2015

NOTE: "FAIR" INDICATES FEW OR NO CLOUDS BELOW 12,000 FEET WITH NO
SIGNIFICANT WEATHER AND/OR OBSTRUCTIONS TO VISIBILITY.

* THESE STATIONS ARE NOT UNDER NWS QUALITY CONTROL. THEY ALSO MAY NOT
  REPORT WEATHER SUCH AS PRECIPITATION OR FOG.

ILZ001-002-007-009-015-016-024-051400-
NORTHWEST ILLINOIS

CITY           SKY/WX    TMP DP  RH WIND       PRES   REMARKS
MOLINE         CLOUDY    59  56  89 E6        30.16R FOG
STERLING*      CLOUDY    55  52  88 E8        30.18R
$$

ILZ003-004-008-010-011-017-018-051400-
NORTH CENTRAL ILLINOIS

CITY           SKY/WX    TMP DP  RH WIND       PRES   REMARKS
ROCKFORD       LGT RAIN  54  50  86 E6        30.22R
FREEPORT*      LGT RAIN  51  50  96 NE8       30.21R
ROCHELLE*      CLOUDY    55  53  95 E6        30.18R
DE KALB*       DRIZZLE   53  51  94 E10       30.18R
PERU*          FOG       57  57  98 E3        30.17R VSB 1/2
$$

ILZ005-006-012>014-019>023-051400-
NORTHEAST ILLINOIS

CITY           SKY/WX    TMP DP  RH WIND       PRES   REMARKS
CHICAGO-OHARE  CLOUDY    51  50  96 NE12      30.17S
CHICAGO-MIDWAY LGT RAIN  54  52  93 E15       30.19F FOG
AURORA         CLOUDY    56  52  86 E12       30.18R
LANSING*       CLOUDY    51  49  93 NE6       30.20F FOG
JOLIET*        CLOUDY    56  55  95 E8        30.19R FOG
WAUKEGAN       CLOUDY    46  44  93 NE9G20    30.20F
DUPAGE AIRPORT LGT RAIN  54  52  93 E13       30.16R
KANKAKEE*      CLOUDY    61  60  97 SE8       30.17F FOG
WHEELING       CLOUDY    50  48  93 NE9       30.20R
MORRIS*        LGT RAIN  56  55  96 E10       30.16R
ROMEOVILLE*    CLOUDY    54  53  99 E8        30.18R FOG
NORTHERLY ISL    N/A     48  46  93 N8          N/A
$$

LMZ740>746-051400-
SOUTHERN LAKE MICHIGAN

STATION/POSITION SKY/WX   TEMP    WIND        PRES    VSBY  WAVE
                          AIR SEA DIR/SP/G                  HT/PER
                          (F)     (DEG/KT/KT) (MB)    (MI)  (FT/S)
HARRISON CRIB              46     340/ 16/ 20   N/A
BURNHAM HARBOR             48      10/  9/ 16   N/A
CALUMET HARBOR             47     340/ 10/ 12   N/A
BURNS HARBOR               49      80/  8/ 11 1023.4S
MICHIGAN CITY              49      50/  7/  7   N/A
MICHIGAN CITY 6N           48 49   60/ 12/ 16   N/A           1/ 2
ST. JOSEPH                 51 49   60/ 12/ 14   N/A           1
$$

ILZ025>027-034>036-040-047-049-050-058-095>099-051400-
WEST-CENTRAL ILLINOIS

CITY           SKY/WX    TMP DP  RH WIND       PRES   REMARKS
QUINCY         PTSUNNY   67  60  78 S3        30.15R
GALESBURG*     CLOUDY    62  61  97 SE5       30.16R FOG
MACOMB*        PTSUNNY   64  64  98 SE9       30.18R FOG
JACKSONVILLE*  PTSUNNY   71  58  65 S6        30.16R
PITTSFIELD*    MOSUNNY   70  58  64 SW5       30.16R
$$

ILZ028>032-037-038-041>044-048-051>054-059>061-051400-
CENTRAL ILLINOIS

CITY           SKY/WX    TMP DP  RH WIND       PRES   REMARKS
PONTIAC        CLOUDY    64  63  96 E12       30.18R FOG
BLOOMINGTON    CLOUDY    65  63  93 SE6       30.18R
DECATUR        CLOUDY    66  57  72 S7        30.19R
PEORIA         PTSUNNY   65  60  84 SE3       30.16R HAZE
LACON*         CLOUDY    62  60  93 E6        30.15S FOG
LINCOLN*       CLOUDY    68  62  82 S3        30.16R
SPRINGFIELD    PTSUNNY   69  58  67 SE3       30.17R
TAYLORVILLE    CLOUDY    64  54  68 S3        30.19S
$$

ILZ033-039-045-046-055>057-062-063-051400-
EAST-CENTRAL ILLINOIS

CITY           SKY/WX    TMP DP  RH WIND       PRES   REMARKS
CHAMPAIGN      CLOUDY    69  56  62 SW9       30.19R
DANVILLE*      PTSUNNY   65  58  77 SW3       30.18R
RANTOUL*       PTSUNNY   66  60  81 CALM      30.19R
MATTOON        PTSUNNY   66  53  63 S8        30.19R
PARIS*         MOSUNNY   71  55  56 SW12      30.20S
$$

ILZ079-100>102-051400-
SOUTHWEST ILLINOIS

CITY           SKY/WX    TMP DP  RH WIND       PRES   REMARKS
ALTON          PTSUNNY   68 N/A N/A S8        30.19R
BELLEVILLE     MOSUNNY   66  57  72 VRB1      30.19R
CAHOKIA*       PTSUNNY   67  55  65 S3        30.19R
SPARTA*        MOSUNNY   66  54  64 S7        30.21S
$$

ILZ064>066-069>071-074>076-080>082-084>086-088>090-092>094-051400-
SOUTH-CENTRAL ILLINOIS

CITY           SKY/WX    TMP DP  RH WIND       PRES   REMARKS
CARBONDALE     MOSUNNY   66  57  72 S5        30.22R
CAIRO*         MOSUNNY   66  57  74 CALM      30.23S
EFFINGHAM*     PTSUNNY   69  50  51 S8        30.22S
MARION         MOSUNNY   68  57  68 S9        30.24R
MT. VERNON     MOSUNNY  N/A N/A N/A SW3       30.23R
CENTRALIA*     MOSUNNY   68  53  58 S9        30.21S
SALEM*         MOSUNNY   69  54  58 S9        30.21S
METROPOLIS*    MOSUNNY   66  58  74 CALM      30.24R
$$

ILZ067-068-072-073-078-083-087-091-051400-
SOUTHEAST ILLINOIS

CITY           SKY/WX    TMP DP  RH WIND       PRES   REMARKS
LAWRENCEVILLE  SUNNY     68  56  65 S7        30.23R
FLORA*         SUNNY     70  55  59 SW9       30.22R
FAIRFIELD*     MOSUNNY   68  56  64 S8        30.22R
HARRISBURG*    SUNNY     66  55  68 CALM      30.24S
ROBINSON*      SUNNY     69  54  59 S7        30.22S
CARMI*         MOSUNNY   68  52  56 S6        30.23S
$$

ABBREVIATIONS USED IN REMARKS
   TC - TEMPERATURE IN CELSIUS
  WCI - WIND CHILL INDEX
   HX - HEAT INDEX
  VSB - VISIBILITY
$$



USA.gov is the U.S. government's official web portal to all federal, state and local government web resources and services.